Terug naar catalogus

STARLINK-34234

ActiefCommunicatieVLEO
NORAD 64248·PAYLOAD·🇺🇸 United States

Gelanceerd Jun 3, 2025 vanaf Cape Canaveral Space Force Station

Loading…

Volgende Passages (komende 24 uur)

TLE

VersSource: CelesTrak SupGP

Epoch: Sep 14, 2026, 21:19 UTC

1 64248C 25119R   26257.88868056 -.00022947  00000+0 -83144-3 0  2578
2 64248  43.0025 318.5966 0001424 269.4955 114.7422 15.27578751    19

Volg STARLINK-34234 in realtime met AllMySat

Download on the App Store